Plovdiv, Bulgaria

10:06 AM EET on December 16, 2019 (GMT +0200)
Plovdiv

Weather History for LBPD - October, 2019

Change the Weather History Date:

Thursday, October 24, 2019

  Actual Average Record
Temperature  
Mean Temperature 60 °F -  
Max Temperature 77 °F - - ()
Min Temperature 42 °F - - ()
Degree Days  
Heating Degree Days 6    
Growing Degree Days 10 (Base 50)    
Moisture  
Dew Point 39 °F    
Average Humidity 51    
Maximum Humidity 81    
Minimum Humidity 26    
Precipitation  
Precipitation 0.00 in - - ()
Sea Level Pressure  
Sea Level Pressure 30.13 in    
Wind  
Wind Speed 3 mph ()    
Max Wind Speed 9 mph    
Max Gust Speed -    
Visibility 6.2 miles    
Events      
T = Trace of Precipitation, MM = Missing Value Source: Averaged Metar Reports

Daily Weather History Graph

Daily Weather History Graph

Search for Another Location

Airport or City:

Astronomy

Oct. 24, 2019 Rise Set
Actual Time 7:43 AM EEST 6:26 PM EEST
Civil Twilight 7:14 AM EEST 6:54 PM EEST
Nautical Twilight 6:42 AM EEST 7:27 PM EEST
Astronomical Twilight 6:09 AM EEST 7:59 PM EEST
Moon 2:43 AM EEST (10/24) 4:48 PM EEST (10/24)
Length of Visible Light 11h 39m
Length of Day
10h 42m
Waning Crescent, 19% of the Moon is Illuminated
Oct 24
Waning Crescent
Oct 28
New
Nov 4
First Quarter
Nov 12
Full
Nov 19
Last Quarter

Hourly Weather History & Observations

Time (EEST) Temp. Windchill Dew Point Humidity Pressure Visibility Wind Dir Wind Speed Gust Speed Precip Events Conditions
12:00 AM 55.4 °F - 39.2 °F 54% 30.18 in 6.2 mi NNW 3.5 mph - N/A   Unknown
12:30 AM 50.0 °F - 37.4 °F 62% 30.18 in 6.2 mi Variable 1.2 mph - N/A   Unknown
1:00 AM 51.8 °F - 37.4 °F 58% 30.18 in 6.2 mi West 4.6 mph - N/A   Unknown
1:30 AM 51.8 °F - 39.2 °F 62% 30.18 in 6.2 mi WSW 3.5 mph - N/A   Unknown
2:00 AM 51.8 °F - 39.2 °F 62% 30.18 in 6.2 mi Calm Calm - N/A   Unknown
2:30 AM 53.6 °F - 39.2 °F 58% 30.18 in 6.2 mi Calm Calm - N/A   Unknown
3:00 AM 53.6 °F - 41.0 °F 62% 30.18 in 6.2 mi East 4.6 mph - N/A   Unknown
3:30 AM 50.0 °F - 37.4 °F 62% 30.18 in 6.2 mi Calm Calm - N/A   Unknown
4:00 AM 50.0 °F - 39.2 °F 66% 30.18 in 6.2 mi Calm Calm - N/A   Unknown
4:30 AM 44.6 °F - 35.6 °F 71% 30.15 in 6.2 mi Calm Calm - N/A   Unknown
5:00 AM 48.2 °F - 39.2 °F 71% 30.15 in 6.2 mi Calm Calm - N/A   Unknown
5:30 AM 46.4 °F 44.3 °F 37.4 °F 71% 30.15 in 6.2 mi NW 4.6 mph - N/A   Unknown
6:00 AM 42.8 °F 41.1 °F 37.4 °F 81% 30.15 in 6.2 mi SSW 3.5 mph - N/A   Unknown
6:30 AM 48.2 °F - 39.2 °F 71% 30.15 in 6.2 mi Variable 2.3 mph - N/A   Unknown
7:00 AM 48.2 °F - 39.2 °F 71% 30.15 in 6.2 mi Variable 1.2 mph - N/A   Unknown
8:00 AM 46.4 °F - 37.4 °F 71% 30.15 in 6.2 mi Variable 1.2 mph - N/A   Unknown
8:30 AM 44.6 °F - 37.4 °F 76% 30.18 in 6.2 mi Variable 2.3 mph - N/A   Unknown
9:00 AM 46.4 °F - 41.0 °F 81% 30.18 in 6.2 mi Variable 1.2 mph - N/A   Unknown
10:00 AM 55.4 °F - 39.2 °F 54% 30.18 in 6.2 mi WNW 5.8 mph - N/A   Unknown
10:30 AM 59.0 °F - 39.2 °F 48% 30.18 in 6.2 mi WNW 4.6 mph - N/A   Unknown
11:00 AM 60.8 °F - 39.2 °F 45% 30.18 in 6.2 mi NW 3.5 mph - N/A   Unknown
11:30 AM 64.4 °F - 39.2 °F 40% 30.18 in 6.2 mi Variable 3.5 mph - N/A   Unknown
12:00 PM 66.2 °F - 39.2 °F 37% 30.15 in 6.2 mi ENE 3.5 mph - N/A   Unknown
12:30 PM 68.0 °F - 37.4 °F 33% 30.15 in 6.2 mi East 3.5 mph - N/A   Unknown
1:00 PM 69.8 °F - 37.4 °F 31% 30.15 in 6.2 mi Variable 3.5 mph - N/A   Unknown
1:30 PM 71.6 °F - 39.2 °F 31% 30.12 in 6.2 mi Variable 1.2 mph - N/A   Unknown
2:00 PM 73.4 °F - 39.2 °F 29% 30.12 in 6.2 mi East 4.6 mph - N/A   Unknown
2:30 PM 73.4 °F - 39.2 °F 29% 30.09 in 6.2 mi East 4.6 mph - N/A   Unknown
3:00 PM 75.2 °F - 39.2 °F 27% 30.09 in 6.2 mi East 5.8 mph - N/A   Unknown
3:30 PM 75.2 °F - 39.2 °F 27% 30.06 in 6.2 mi East 4.6 mph - N/A   Unknown
4:00 PM 77.0 °F - 39.2 °F 26% 30.06 in 6.2 mi East 8.1 mph - N/A   Unknown
4:30 PM 77.0 °F - 39.2 °F 26% 30.06 in 6.2 mi East 8.1 mph - N/A   Unknown
5:00 PM 75.2 °F - 39.2 °F 27% 30.06 in 6.2 mi East 6.9 mph - N/A   Unknown
5:30 PM 75.2 °F - 39.2 °F 27% 30.06 in 6.2 mi East 6.9 mph - N/A   Unknown
6:00 PM 71.6 °F - 39.2 °F 31% 30.06 in 6.2 mi East 5.8 mph - N/A   Unknown
6:30 PM 66.2 °F - 41.0 °F 40% 30.06 in 6.2 mi SSE 4.6 mph - N/A   Unknown
7:00 PM 64.4 °F - 41.0 °F 42% 30.06 in 6.2 mi SE 4.6 mph - N/A   Unknown
7:30 PM 62.6 °F - 41.0 °F 45% 30.06 in 6.2 mi SSE 4.6 mph - N/A   Unknown
8:00 PM 62.6 °F - 42.8 °F 48% 30.09 in 6.2 mi SE 3.5 mph - N/A   Unknown
8:30 PM 57.2 °F - 41.0 °F 55% 30.09 in 6.2 mi East 3.5 mph - N/A   Unknown
9:00 PM 59.0 °F - 41.0 °F 51% 30.09 in 6.2 mi ESE 5.8 mph - N/A   Unknown
9:30 PM 57.2 °F - 41.0 °F 55% 30.09 in 6.2 mi South 8.1 mph - N/A   Unknown
10:00 PM 62.6 °F - 41.0 °F 45% 30.09 in 6.2 mi SSE 9.2 mph - N/A   Unknown
10:30 PM 59.0 °F - 39.2 °F 48% 30.09 in 6.2 mi South 5.8 mph - N/A   Unknown
11:00 PM 55.4 °F - 39.2 °F 54% 30.12 in 6.2 mi SW 5.8 mph - N/A   Unknown
11:30 PM 51.8 °F - 39.2 °F 62% 30.12 in 6.2 mi SW 3.5 mph - N/A   Unknown